Location: Great Snoring
(52.8667°N, 0.8833°E)
Time: 20:31:47
(UTC+00:00)

Cosmos 405 Rocket - Pass Details

Date: 19 May 2025
Orbit: 413 x 447 km, 81.2° (Epoch: 18 June)

Event Time Altitude Azimuth Distance (km) Brightness Sun altitude
Rises 21:36:00 0° 356° (N) 2,467 7.3 -11.3°
Reaches altitude 10° 21:38:24 10° 11° (NNE) 1,584 5.9 -11.5°
Maximum altitude 21:41:13 23° 66° (ENE) 1,000 4.1 -11.8°
Enters shadow 21:43:14 14° 112° (ESE) 1,325 4.3 -11.9°
